Location: *
(42.9307°S, 179.0066°W)
Time: 03:14:19
(UTC+00:00)

Daily predictions for brighter satellites

Satellite Brightness Start Highest point End
(mag) Time Altitude Azimuth Time Altitude Azimuth Time Altitude Azimuth
Cosmos 1833 Rocket 2.8 04:53:29 10° NNW 04:59:09 86° ENE 05:04:54 10° SSE
Cosmos 2173 Rocket 4.4 04:54:10 10° S 05:00:16 44° ESE 05:06:12 10° NNE
Cosmos 1782 3.8 04:57:51 10° SSE 05:01:16 26° ESE 05:04:37 10° NE
SJ-12 4.0 05:00:19 10° SSE 05:04:34 85° ENE 05:08:42 10° NNW
USA 305 3.3 05:01:55 10° SW 05:05:59 43° SSE 05:10:00 10° ENE
Cosmos 1953 Rocket 4.5 05:02:08 10° NNW 05:06:27 53° W 05:10:48 10° S
CZ-2C R/B 4.0 05:01:48 10° N 05:07:11 47° W 05:12:33 10° SSW
SeaSat 1 3.7 05:02:42 10° SSE 05:07:18 39° SW 05:11:52 10° WNW
Cosmos 1727 Rocket 4.0 05:02:15 10° N 05:08:30 82° E 05:14:47 10° S
Lacrosse 5 rocket 3.5 05:08:28 10° SSW 05:09:54 11° S 05:11:17 10° SSE
Cosmos 1933 3.7 05:06:06 10° S 05:10:01 43° ESE 05:13:54 10° NNE
Cosmos 1939 Rocket 3.7 05:08:17 10° SE 05:11:43 28° E 05:15:07 10° NNE
Cosmos 1076 Rocket 3.5 05:13:33 10° N 05:17:53 67° E 05:22:16 10° SSE
BREEZE-M DEB (TANK) 2.9 05:12:20 10° WSW 05:21:40 86° NW 05:24:57 10° ENE
Meteor 2-3 Rocket 3.7 05:16:40 10° N 05:22:16 72° E 05:27:58 10° SSE
Cosmos 1802 Rocket 4.3 05:16:17 10° S 05:22:36 51° ESE 05:28:51 10° NNE
Cosmos 1459 Rocket 4.0 05:17:36 10° S 05:23:48 63° E 05:30:01 10° NNE
Cosmos 968 Rocket 3.8 05:22:20 10° SSW 05:27:40 73° WNW 05:32:53 10° N
USA 281 4.1 05:22:18 10° SE 05:27:49 27° ENE 05:33:16 10° NNE
ATLAS 2AS CENTAUR R/B 3.3 05:21:40 10° SW 05:28:45 70° WNW 05:36:15 10° NNE
CZ-4B R/B 4.1 05:27:51 10° SSE 05:32:21 86° WSW 05:36:40 10° NNW
Cosmos 1812 3.0 05:29:37 10° S 05:33:21 42° ESE 05:37:01 10° NNE
Cosmos 2221 3.7 05:29:36 10° SSW 05:33:54 47° W 05:38:07 10° NNW
Cosmos 2100 Rocket 4.0 05:30:04 10° S 05:36:27 86° E 05:42:40 10° N
CZ-4B R/B 3.8 05:34:47 14° SE 05:37:21 26° E 05:40:42 10° NNE
Cosmos 1503 Rocket 4.4 05:32:50 10° S 05:37:45 39° ESE 05:42:37 10° NE
SJ 16-02 2.6 05:34:25 10° S 05:37:46 20° ESE 05:39:38 16° E
Cosmos 1842 Rocket 4.3 05:33:33 10° SSW 05:37:58 57° W 05:42:18 10° N
CZ-2C R/B 3.7 05:33:15 10° S 05:37:59 53° WSW 05:42:48 10° NNW
Cosmos 1980 Rocket 2.1 05:35:44 10° SSW 05:41:23 71° ESE 05:46:59 10° NNE
CZ-4C R/B 3.8 05:41:15 10° NE 05:43:59 25° ESE 05:46:48 10° SSE
DELTA 2 R/B (1) 4.2 05:42:14 10° WNW 05:47:38 49° NNE 05:51:36 18° E
Meteor 1-26 Rocket 4.4 05:41:32 10° S 05:47:41 90° ESE 05:53:39 10° N
USA 306 2.8 05:43:56 10° SW 05:48:11 79° SE 05:52:10 11° NE
Aureole 1 Rocket 3.9 05:42:33 10° SSW 05:49:46 81° ESE 05:55:14 10° NNE
Cosmos 2322 Rocket 3.4 05:46:27 10° S 05:50:37 20° SE 05:51:23 19° ESE
RESURS DK-1 2.3 05:48:01 10° SSW 05:52:13 72° ESE 05:56:23 10° NNE
USA 307 2.8 05:49:13 10° SW 05:53:28 75° SE 05:56:49 16° ENE
Cosmos 2082 Rocket 2.3 05:47:50 10° NNW 05:53:29 83° WSW 05:59:11 10° SSE
Cosmos 2369 3.9 05:51:12 10° SSW 05:56:57 77° WNW 06:02:37 10° NNE
Cosmos 1697 Rocket 4.0 05:53:37 10° SW 05:58:58 43° WNW 06:04:17 10° N
USA 215 3.3 05:53:51 10° ENE 06:00:22 65° SE 06:06:55 10° SW
H-2A R/B 2.1 05:55:56 10° SSE 06:00:48 50° E 06:05:36 10° N
Cosmos 2333 Rocket 4.3 05:59:47 10° SSE 05:59:59 10° SSE 05:59:59 10° SSE
Cosmos 2123 Rocket 4.0 05:55:22 10° N 06:01:43 83° E 06:08:09 10° S
ERBS 3.3 06:00:45 10° SSW 06:03:04 27° SSE 06:03:04 27° SSE
Cosmos 1862 3.2 06:00:03 10° N 06:03:59 62° E 06:07:13 15° SSE
Cosmos 1766 Rocket 4.2 06:00:11 10° NNE 06:04:06 33° E 06:04:50 31° ESE
Okean 3 Rocket 4.4 06:01:32 10° NNE 06:05:27 29° E 06:05:27 29° E
Lacrosse 5 3.1 06:01:29 10° SSW 06:05:43 25° SSE 06:06:46 23° SE
Cosmos 2061 Rocket 4.0 05:59:29 10° S 06:05:58 77° E 06:12:15 10° NNE
Cosmos 1725 Rocket 3.9 05:59:58 10° S 06:06:19 81° E 06:12:37 10° N
CZ-2C R/B 2.8 06:03:49 10° NW 06:06:58 24° N 06:08:37 18° NE
ADEOS 3.6 06:05:44 10° SSE 06:11:04 87° WSW 06:16:19 10° NNW
CORIOLIS 4.3 06:05:40 10° SSE 06:11:07 56° E 06:16:29 10° N
FengYun 1-2 T 4.3 06:05:38 10° SSE 06:11:15 83° WSW 06:16:47 10° NNW
NOAA 12 4.4 06:06:23 10° S 06:11:44 71° WSW 06:16:59 10° NNW
Cosmos 2084 3.7 06:09:28 10° NNW 06:14:16 84° NE 06:16:41 30° SE
IRIDIUM 103 4.4 06:17:50 10° NNE 06:22:54 51° E 06:27:48 11° SSE
USA 308 3.2 06:20:09 10° WSW 06:24:22 64° NW 06:26:32 27° NNE
AQUARIUS 4.1 06:25:01 20° SSE 06:28:09 84° ENE 06:32:40 10° NNW
SL-16 R/B 2.3 06:26:46 10° SSW 06:32:21 50° ESE 06:33:22 44° E
NOAA 6 3.9 06:29:17 20° SSE 06:32:55 76° ENE 06:38:03 10° N
GEOS 3 Rocket 4.2 06:38:59 39° NE 06:38:59 39° NE 06:43:32 10° N
Cosmos 1777 Rocket 3.8 06:35:06 10° SSW 06:40:23 71° ESE 06:42:24 38° NE
IRIDIUM 106 4.2 06:35:55 10° N 06:41:08 76° E 06:45:56 13° S
USA 305 4.3 06:41:38 10° WSW 06:45:29 35° NW 06:47:34 21° N
Cosmos 1354 Rocket 4.3 06:41:22 10° SSW 06:46:37 65° WNW 06:51:49 10° N
SMAP 3.8 06:44:40 12° S 06:48:51 52° WSW 06:53:24 10° NNW
Lacrosse 5 rocket 3.5 06:46:58 10° SSW 06:48:05 15° SSW 06:48:05 15° SSW
Cosmos 2360 Rocket 3.6 06:48:38 10° S 06:51:15 24° S 06:51:15 24° S
Cosmos 2233 Rocket 4.3 06:48:25 10° SSW 06:54:42 67° W 07:00:57 10° N
Cosmos 1447 Rocket 4.4 06:49:00 10° N 06:55:11 85° W 07:01:26 10° S
Cosmos 1151 Rocket 3.8 06:51:15 10° SSW 06:55:35 53° W 06:59:50 10° N
Meteor 1-10 Rocket 4.4 06:53:05 10° SSW 06:58:48 71° W 07:04:21 10° N
CZ-4B DEB 4.0 06:59:36 75° ESE 06:59:58 79° ENE 07:05:27 10° N
ATLAS 5 CENTAUR R/B 4.1 06:56:04 10° N 06:59:38 24° NNE 06:59:38 24° NNE
SL-8 R/B 3.9 06:58:42 10° WNW 07:03:00 70° W 07:03:00 70° W
Meteor 1-27 Rocket 3.7 07:00:04 10° S 07:04:59 68° S 07:04:59 68° S
USA 281 3.6 07:08:10 22° SSE 07:12:38 61° WSW 07:19:07 10° NW
ARGOS 3.4 07:12:25 47° SSW 07:13:53 67° WSW 07:19:13 10° NNW
SJ 16-02 2.5 07:12:18 10° SSW 07:16:31 41° WNW 07:16:45 41° WNW
ATLAS CENTAUR R/B 4.4 07:13:42 10° NNW 07:14:22 13° NNW 07:14:22 13° NNW
DELTA 2 R/B (1) 4.4 07:28:14 10° W 07:32:22 47° WNW 07:32:22 47° WNW
Cosmos 2322 Rocket 3.1 07:29:33 10° SSW 07:33:15 41° SW 07:33:15 41° SW
H-2A R/B 4.3 07:36:14 10° SSW 07:39:51 20° WSW 07:43:25 10° WNW
USA 215 4.3 07:41:10 31° N 07:43:33 40° NW 07:49:44 10° WSW
Cosmos 2333 Rocket 4.5 07:41:12 10° SSW 07:42:01 14° SSW 07:42:01 14° SSW
Lacrosse 5 3.9 07:44:11 10° SW 07:45:59 22° SW 07:45:59 22° SW
SL-16 R/B 4.2 08:11:31 10° SW 08:15:20 24° W 08:15:20 24° W
